Powrót do katalogu

OPS 4682 DEB

AktywnyPO
NORAD 51492·DEBRIS·🇺🇸 United States

Wystrzelony Apr 3, 1965 z Vandenberg Space Force Base

Loading…

Następne Przeloty (najbliższe 24 godziny)

TLE

Starzejące sięSource: Space-Track

Epoka: Sep 8, 2026, 03:37 UTC

1 51492U 65027GC  26251.15099904  .00000758  00000-0  24917-2 0  9999
2 51492  90.2648  19.6932 0030470  70.3262 107.9965 12.99888806774550

Śledź OPS 4682 DEB w czasie rzeczywistym z AllMySat

Download on the App Store